Location: Beekmeers
(50.8953°N, 3.6968°E)
Time: 02:19:16
(UTC+00:00)

ACS3 Solar Sail - Visible Passes

Search period start: 14 July 2024 00:00
Search period end: 24 July 2024 00:00
Orbit: 992 x 1023 km, 97.4° (Epoch: 13 July)

Date Brightness Start Highest point End Pass type
(mag) Time Alt. Az. Time Alt. Az. Time Alt. Az.
14 Jul 6.1 21:45:40 10° SSW 21:51:20 36° W 21:57:03 10° NNW visible
15 Jul 4.9 20:35:06 10° SSE 20:41:19 81° ENE 20:47:36 10° NNW visible
15 Jul 6.8 22:21:38 10° SW 22:26:12 21° W 22:30:48 10° NW visible
16 Jul 5.3 21:09:40 10° S 21:15:48 61° W 21:22:01 10° NNW visible
16 Jul 7.3 22:59:27 10° W 23:01:17 11° WNW 23:03:07 10° WNW visible
17 Jul 6.1 21:44:51 10° SSW 21:50:29 35° W 21:56:10 10° NNW visible
18 Jul 4.9 20:34:14 10° SSE 20:40:27 83° ENE 20:46:45 10° NNW visible
18 Jul 6.9 22:20:52 10° SW 22:25:21 20° W 22:29:53 10° NW visible
19 Jul 5.3 21:08:49 10° S 21:14:56 59° W 21:21:09 10° NNW visible
19 Jul 7.3 22:58:54 10° W 23:00:28 11° WNW 23:02:01 10° WNW visible
20 Jul 6.2 21:44:02 10° SSW 21:49:38 34° W 21:55:17 10° NNW visible
21 Jul 4.9 20:33:21 10° SSE 20:39:35 85° ENE 20:45:53 10° NNW visible
21 Jul 6.9 22:20:06 10° SW 22:24:31 20° W 22:28:58 10° NW visible
22 Jul 5.4 21:07:58 10° S 21:14:05 58° W 21:20:17 10° NNW visible
22 Jul 7.4 22:58:26 10° W 22:59:38 11° WNW 23:00:50 10° WNW visible
23 Jul 6.2 21:43:13 10° SSW 21:48:46 33° W 21:54:24 10° NNW visible
